EW7868 Weather Reports


Display with metric or nautical units.
time (UTC)temp
F
wind
direction
speed
MPH
gust
MPH
rain 1hr
in
rain 24hr
in
rain mn
in
humidity
%
barometer
mb
20260507150525 55 205 4.0 8.0 0.00 0.00 0.00 54 1013.2
20260507150021 54 190 3.0 7.0 0.00 0.00 0.00 51 1013.3
20260507145516 53 182 3.0 7.0 0.00 0.00 0.00 52 1013.4
20260507145014 53 192 0.0 11.0 0.00 0.00 0.00 53 1013.6
20260507144510 53 194 3.0 6.0 0.00 0.00 0.00 52 1013.7
20260507144008 53 189 3.0 8.0 0.00 0.00 0.00 52 1013.5
20260507143505 52 198 2.0 8.0 0.00 0.00 0.00 54 1013.8
20260507143002 52 195 6.0 7.0 0.00 0.00 0.00 54 1013.7
20260507142458 53 189 0.0 6.0 0.00 0.00 0.00 51 1013.9
20260507141955 52 190 3.0 5.0 0.00 0.00 0.00 53 1014.0
20260507141450 52 0 0.0 6.0 0.00 0.00 0.00 55 1014.1
20260507140948 50 195 3.0 7.0 0.00 0.00 0.00 57 1013.7
20260507140444 51 195 4.0 5.0 0.00 0.00 0.00 59 1013.9
20260507135942 50 186 0.0 7.0 0.00 0.00 0.00 59 1014.1
20260507135438 50 191 2.0 6.0 0.00 0.00 0.00 56 1014.1
20260507134936 50 186 3.0 6.0 0.00 0.00 0.00 59 1014.4
20260507134432 51 189 5.0 6.0 0.00 0.00 0.00 57 1014.1
20260507133928 51 192 2.0 7.0 0.00 0.00 0.00 60 1014.3
20260507133425 50 192 4.0 6.0 0.00 0.00 0.00 60 1014.0
20260507132923 50 195 2.0 4.0 0.00 0.00 0.00 58 1014.1
20260507132419 50 189 4.0 6.0 0.00 0.00 0.00 57 1014.2
20260507131916 50 197 3.0 5.0 0.00 0.00 0.00 61 1014.4
20260507131413 51 243 0.0 3.0 0.00 0.00 0.00 62 1014.6
20260507130910 50 82 1.0 4.0 0.00 0.00 0.00 64 1014.5
20260507130407 49 199 3.0 4.0 0.00 0.00 0.00 66 1014.7
20260507125906 49 203 2.0 4.0 0.00 0.00 0.00 66 1014.5
20260507125403 50 195 0.0 3.0 0.00 0.00 0.00 66 1014.5
20260507124900 48 188 2.0 3.0 0.00 0.00 0.00 70 1014.5
20260507124355 49 82 0.0 3.0 0.00 0.00 0.00 74 1014.3
20260507123855 47 194 2.0 3.0 0.00 0.00 0.00 75 1014.3
20260507123351 47 185 0.0 3.0 0.00 0.00 0.00 74 1014.2
20260507122848 46 197 2.0 3.0 0.00 0.00 0.00 75 1014.2
20260507122343 47 186 3.0 3.0 0.00 0.00 0.00 78 1013.8
20260507121840 48 180 0.0 2.0 0.00 0.00 0.00 75 1013.8
20260507121335 45 192 2.0 2.0 0.00 0.00 0.00 78 1013.8
20260507120832 45 180 1.0 2.0 0.00 0.00 0.00 77 1014.2
20260507120328 45 200 1.0 2.0 0.00 0.00 0.00 75 1013.8
20260507115825 44 180 0.0 1.0 0.00 0.00 0.00 76 1013.8
20260507115320 43 175 2.0 2.0 0.00 0.00 0.00 77 1013.8
20260507114816 43 180 0.0 1.0 0.00 0.00 0.00 79 1013.8
20260507114314 42 174 0.0 0.0 0.00 0.00 0.00 88 1013.6
20260507113811 40 174 0.0 1.0 0.00 0.00 0.00 90 1013.7
20260507113308 38 165 0.0 0.0 0.00 0.00 0.00 91 1013.9
20260507112806 36 173 0.0 0.0 0.00 0.00 0.00 90 1013.8
20260507112306 35 173 0.0 0.0 0.00 0.00 0.00 89 1014.0
20260507111800 35 157 0.0 1.0 0.00 0.00 0.00 89 1013.8
20260507111256 34 173 0.0 0.0 0.00 0.00 0.00 88 1013.7
20260507110752 34 173 0.0 0.0 0.00 0.00 0.00 88 1013.9
20260507110249 33 173 0.0 0.0 0.00 0.00 0.00 88 1013.7
20260507105746 34 173 0.0 0.0 0.00 0.00 0.00 88 1014.0
20260507105242 33 173 0.0 0.0 0.00 0.00 0.00 87 1013.9
20260507104740 33 173 0.0 0.0 0.00 0.00 0.00 87 1013.8
20260507104236 33 173 0.0 0.0 0.00 0.00 0.00 88 1013.9
20260507103732 33 173 0.0 1.0 0.00 0.00 0.00 88 1013.8
20260507103228 32 98 0.0 0.0 0.00 0.00 0.00 86 1013.8
20260507102725 32 98 0.0 0.0 0.00 0.00 0.00 86 1013.7
20260507102221 32 98 0.0 0.0 0.00 0.00 0.00 85 1013.9
20260507101718 32 98 0.0 0.0 0.00 0.00 0.00 84 1013.9
20260507101213 33 98 0.0 0.0 0.00 0.00 0.00 84 1014.2
20260507100710 33 98 0.0 0.0 0.00 0.00 0.00 84 1013.9
20260507100209 33 98 0.0 0.0 0.00 0.00 0.00 84 1014.0
20260507095707 34 98 0.0 0.0 0.00 0.00 0.00 83 1014.1
20260507095203 34 98 0.0 0.0 0.00 0.00 0.00 83 1014.0
20260507094659 34 98 0.0 0.0 0.00 0.00 0.00 82 1013.6
20260507094156 35 98 0.0 0.0 0.00 0.00 0.00 82 1014.0
20260507093653 36 106 0.0 1.0 0.00 0.00 0.00 81 1014.0
20260507093152 36 90 0.0 1.0 0.00 0.00 0.00 78 1014.2
20260507092649 37 180 0.0 1.0 0.00 0.00 0.00 77 1014.1
20260507092145 37 180 0.0 2.0 0.00 0.00 0.00 76 1014.1
20260507091642 37 165 0.0 2.0 0.00 0.00 0.00 75 1014.0
20260507091138 36 175 0.0 2.0 0.00 0.00 0.00 77 1014.0
20260507090633 36 106 0.0 1.0 0.00 0.00 0.00 78 1014.3
20260507090131 36 97 0.0 1.0 0.00 0.00 0.00 78 1014.2
20260507085628 36 165 0.0 0.0 0.00 0.00 0.00 77 1014.4
20260507085125 36 173 0.0 1.0 0.00 0.00 0.00 77 1014.5
20260507084621 36 157 0.0 0.0 0.00 0.00 0.00 77 1014.1
20260507084118 36 157 0.0 0.0 0.00 0.00 0.00 76 1014.0
20260507083615 37 157 0.0 0.0 0.00 0.00 0.00 76 1014.1
20260507083112 37 157 0.0 1.0 0.00 0.00 0.00 75 1014.1
20260507082608 37 180 0.0 0.0 0.00 0.00 0.00 75 1014.0
20260507082104 37 180 0.0 0.0 0.00 0.00 0.00 74 1014.0
20260507081601 37 98 0.0 0.0 0.00 0.00 0.00 74 1014.2
20260507081058 38 98 0.0 1.0 0.00 0.00 0.00 74 1013.8
20260507080553 38 90 0.0 1.0 0.00 0.00 0.00 74 1014.0
20260507080050 38 203 0.0 1.0 0.00 0.00 0.00 74 1014.2
20260507075545 38 103 1.0 1.0 0.00 0.00 0.00 74 1014.1
20260507075042 38 71 0.0 2.0 0.00 0.00 0.00 73 1014.1
20260507074539 38 185 0.0 2.0 0.00 0.00 0.00 73 1014.1
20260507074037 38 90 0.0 1.0 0.00 0.00 0.00 73 1014.1
20260507073533 38 98 0.0 1.0 0.00 0.00 0.00 73 1013.9
20260507073030 38 66 0.0 1.0 0.00 0.00 0.00 72 1014.0
20260507072527 39 165 0.0 0.0 0.00 0.00 0.00 72 1014.0
20260507072024 39 75 0.0 0.0 0.00 0.00 0.00 71 1014.0
20260507071522 39 82 0.0 1.0 0.00 0.00 0.00 71 1013.8
20260507071018 39 96 0.0 2.0 0.00 0.00 0.00 71 1014.1
20260507070515 39 117 0.0 2.0 0.00 0.00 0.00 71 1014.3
20260507070013 39 69 0.0 1.0 0.00 0.00 0.00 71 1014.1
20260507065508 39 344 0.0 2.0 0.00 0.00 0.00 71 1014.2
20260507065006 39 35 0.0 2.0 0.00 0.00 0.00 72 1014.1
20260507064504 39 77 0.0 1.0 0.00 0.00 0.00 72 1014.4
20260507064002 39 105 0.0 1.0 0.00 0.00 0.00 71 1014.3
20260507063458 39 77 0.0 2.0 0.00 0.00 0.00 71 1014.4
20260507062956 39 60 0.0 1.0 0.00 0.00 0.00 71 1014.4
20260507062452 39 20 0.0 2.0 0.00 0.00 0.00 71 1014.1
20260507061950 39 82 0.0 0.0 0.00 0.00 0.00 70 1014.4
20260507061448 39 90 0.0 1.0 0.00 0.00 0.00 70 1014.3
20260507060946 39 97 0.0 0.0 0.00 0.00 0.00 70 1014.3
20260507060442 39 57 0.0 1.0 0.00 0.00 0.00 70 1014.1
20260507055939 39 67 2.0 2.0 0.00 0.00 0.00 71 1014.4
20260507055434 39 69 0.0 1.0 0.00 0.00 0.00 72 1014.4
20260507054931 39 29 0.0 0.0 0.00 0.00 0.00 72 1014.3
20260507054427 39 29 0.0 1.0 0.00 0.00 0.00 71 1014.4
20260507053925 39 74 0.0 0.0 0.00 0.00 0.00 71 1014.5
20260507053422 39 74 0.0 0.0 0.00 0.00 0.00 70 1014.3
20260507052921 40 74 0.0 0.0 0.00 0.00 0.00 70 1014.3
20260507052418 39 74 0.0 0.0 0.00 0.00 0.00 71 1014.2
20260507051915 39 74 0.0 0.0 0.00 0.00 0.00 70 1014.3
20260507051413 39 74 0.0 0.0 0.00 0.00 0.00 70 1014.2
20260507050909 39 74 0.0 0.0 0.00 0.00 0.00 70 1014.4
20260507050406 39 74 0.0 0.0 0.00 0.00 0.00 71 1014.5
20260507045902 39 192 0.0 0.0 0.00 0.00 0.00 71 1014.2
20260507045359 39 74 0.0 0.0 0.00 0.00 0.00 71 1014.3
20260507044856 39 41 0.0 1.0 0.00 0.00 0.00 71 1014.4
20260507044353 40 41 0.0 0.0 0.00 0.00 0.00 70 1014.4
20260507043849 40 41 0.0 0.0 0.00 0.00 0.00 69 1014.4
20260507043346 41 41 0.0 0.0 0.00 0.00 0.00 68 1014.4
20260507042842 40 15 0.0 0.0 0.00 0.00 0.00 69 1014.2
20260507042338 40 15 0.0 0.0 0.00 0.00 0.00 69 1014.2
20260507041835 41 15 0.0 0.0 0.00 0.00 0.00 69 1014.2
20260507041331 41 23 0.0 0.0 0.00 0.00 0.00 68 1014.3
20260507040829 41 345 0.0 0.0 0.00 0.00 0.00 68 1014.4
20260507040324 41 345 0.0 2.0 0.00 0.00 0.00 67 1014.6
20260507035821 41 0 0.0 0.0 0.00 0.00 0.00 68 1014.2
20260507035316 41 0 0.0 0.0 0.00 0.00 0.00 68 1014.2
20260507034814 40 0 0.0 0.0 0.00 0.00 0.00 69 1014.4
20260507034311 40 0 0.0 0.0 0.00 0.00 0.00 69 1014.5
20260507033809 40 0 0.0 0.0 0.00 0.00 0.00 70 1014.5
20260507033306 40 0 0.0 0.0 0.00 0.00 0.00 70 1014.3
20260507032803 40 0 0.0 0.0 0.00 0.00 0.00 69 1014.4
20260507032259 41 0 0.0 0.0 0.00 0.00 0.00 69 1014.5
20260507031756 41 0 0.0 0.0 0.00 0.00 0.00 69 1014.6
20260507031253 41 53 0.0 0.0 0.00 0.00 0.00 69 1014.4
20260507030749 41 173 0.0 0.0 0.00 0.00 0.00 68 1014.3
20260507030247 41 173 0.0 0.0 0.00 0.00 0.00 68 1014.3
20260507025744 41 270 0.0 0.0 0.00 0.00 0.00 67 1014.4
20260507025241 42 57 0.0 0.0 0.00 0.00 0.00 67 1014.4
20260507024739 42 57 0.0 0.0 0.00 0.00 0.00 66 1014.1
20260507024236 43 57 0.0 0.0 0.00 0.00 0.00 64 1014.0
20260507023731 44 32 0.0 1.0 0.00 0.00 0.00 63 1014.1
20260507023229 44 75 0.0 0.0 0.00 0.00 0.00 62 1013.8
20260507022726 44 69 0.0 0.0 0.00 0.00 0.00 61 1013.7
20260507022222 45 29 0.0 1.0 0.00 0.00 0.00 61 1013.8
20260507021718 45 21 0.0 2.0 0.00 0.00 0.00 60 1013.9
20260507021214 46 180 0.0 1.0 0.00 0.00 0.00 58 1013.7
20260507020713 46 285 0.0 2.0 0.00 0.00 0.00 57 1013.7
20260507020208 46 241 2.0 4.0 0.00 0.00 0.00 56 1013.7
20260507015706 47 90 0.0 3.0 0.00 0.00 0.00 56 1013.6
20260507015203 47 10 2.0 3.0 0.00 0.00 0.00 56 1013.7
20260507014700 47 294 0.0 3.0 0.00 0.00 0.00 55 1013.4
20260507014156 48 7 1.0 4.0 0.00 0.00 0.00 54 1013.3
20260507013653 48 45 0.0 3.0 0.00 0.00 0.00 54 1013.4
20260507013150 48 20 0.0 5.0 0.00 0.00 0.00 54 1013.5
20260507012648 48 259 2.0 4.0 0.00 0.00 0.00 53 1013.2
20260507012143 48 243 0.0 4.0 0.00 0.00 0.00 54 1013.2
20260507011641 48 336 0.0 4.0 0.00 0.00 0.00 53 1013.3
20260507011137 49 59 0.0 3.0 0.00 0.00 0.00 53 1013.4
20260507010632 49 72 2.0 3.0 0.00 0.00 0.00 53 1013.3
20260507010128 50 353 1.0 3.0 0.00 0.00 0.00 52 1013.3
20260507005626 50 328 1.0 4.0 0.00 0.00 0.00 50 1013.3
20260507005121 50 45 2.0 5.0 0.00 0.00 0.00 50 1013.2
20260507004619 50 55 2.0 4.0 0.00 0.00 0.00 50 1013.1
20260507004116 51 0 5.0 7.0 0.00 0.00 0.00 48 1013.1
20260507003612 51 340 4.0 5.0 0.00 0.00 0.00 49 1013.3
20260507003107 51 350 2.0 5.0 0.00 0.00 0.00 49 1013.3
20260507002604 52 337 1.0 7.0 0.00 0.00 0.00 48 1013.1
20260507002059 53 63 0.0 5.0 0.00 0.00 0.00 47 1013.1
20260507001557 53 341 0.0 5.0 0.00 0.00 0.00 47 1013.2
20260507001054 53 87 0.0 5.0 0.00 0.00 0.00 46 1013.1
20260507000550 53 174 3.0 6.0 0.00 0.00 0.00 46 1013.1
20260507000046 53 350 6.0 8.0 0.00 0.00 0.00 46 1012.9
20260506235543 53 238 4.0 14.0 0.00 0.00 0.00 46 1012.8
20260506235038 54 45 3.0 8.0 0.00 0.00 0.00 45 1012.9
20260506234536 55 333 3.0 8.0 0.00 0.00 0.00 44 1012.8
20260506234033 53 270 0.0 13.0 0.00 0.00 0.00 46 1012.8
20260506233530 54 345 2.0 8.0 0.00 0.00 0.00 44 1012.9
20260506233027 55 50 3.0 12.0 0.00 0.00 0.00 41 1012.7
20260506232523 56 186 4.0 5.0 0.00 0.00 0.00 44 1012.7
20260506232019 56 75 2.0 5.0 0.00 0.00 0.00 44 1012.5
20260506231516 57 355 5.0 8.0 0.00 0.00 0.00 41 1012.6
20260506231014 57 337 0.0 7.0 0.00 0.00 0.00 44 1012.6
20260506230510 56 77 5.0 13.0 0.00 0.00 0.00 43 1012.5
20260506230008 55 26 5.0 7.0 0.00 0.00 0.00 44 1012.7
20260506225504 55 329 3.0 5.0 0.00 0.00 0.00 46 1012.3
20260506225001 55 329 3.0 10.0 0.00 0.00 0.00 43 1012.6
20260506224458 56 7 2.0 6.0 0.00 0.00 0.00 44 1012.4
20260506223954 56 334 3.0 7.0 0.00 0.00 0.00 44 1012.5
20260506223450 57 103 1.0 5.0 0.00 0.00 0.00 44 1012.3
20260506222947 58 26 0.0 7.0 0.00 0.00 0.00 41 1012.5
20260506222443 58 270 3.0 6.0 0.00 0.00 0.00 43 1012.5
20260506221935 58 188 0.0 5.0 0.00 0.00 0.00 43 1012.5
20260506221432 57 26 0.0 8.0 0.00 0.00 0.00 42 1012.4
20260506220930 57 36 9.0 10.0 0.00 0.00 0.00 41 1012.2
20260506220425 57 68 3.0 9.0 0.00 0.00 0.00 42 1012.1
20260506215922 57 157 2.0 7.0 0.00 0.00 0.00 43 1012.2
20260506215418 57 109 2.0 9.0 0.00 0.00 0.00 44 1012.3
20260506214914 57 48 4.0 15.0 0.00 0.00 0.00 42 1012.0
20260506214411 56 225 2.0 6.0 0.00 0.00 0.00 43 1012.1
20260506213909 57 11 2.0 10.0 0.00 0.00 0.00 40 1012.1
20260506213406 59 334 1.0 9.0 0.00 0.00 0.00 41 1012.3
20260506212904 59 210 3.0 11.0 0.00 0.00 0.00 41 1012.4
20260506212359 58 328 3.0 5.0 0.00 0.00 0.00 41 1012.1
20260506211854 58 326 2.0 10.0 0.00 0.00 0.00 40 1012.1
20260506211350 59 303 2.0 9.0 0.00 0.00 0.00 42 1012.1
20260506210848 59 198 7.0 12.0 0.00 0.00 0.00 43 1012.1
20260506210345 58 45 5.0 9.0 0.00 0.00 0.00 41 1011.9
20260506205842 58 21 3.0 9.0 0.00 0.00 0.00 42 1012.1
20260506205338 57 256 0.0 12.0 0.00 0.00 0.00 42 1012.2
20260506204834 58 255 2.0 6.0 0.00 0.00 0.00 43 1012.2
20260506204332 58 327 3.0 7.0 0.00 0.00 0.00 43 1012.3
20260506203830 58 312 4.0 7.0 0.00 0.00 0.00 42 1012.4
20260506203326 59 11 3.0 7.0 0.00 0.00 0.00 43 1012.2
20260506202823 58 29 1.0 7.0 0.00 0.00 0.00 41 1012.2
20260506202320 59 352 2.0 14.0 0.00 0.00 0.00 43 1012.2
20260506201817 59 53 2.0 5.0 0.00 0.00 0.00 44 1012.3
20260506201314 57 75 2.0 7.0 0.00 0.00 0.00 44 1012.3
20260506200811 57 60 0.0 9.0 0.00 0.00 0.00 42 1012.6
20260506200307 59 99 3.0 7.0 0.00 0.00 0.00 43 1012.5
20260506195803 58 310 3.0 5.0 0.00 0.00 0.00 41 1012.5
20260506195301 58 270 5.0 7.0 0.00 0.00 0.00 44 1012.6
20260506194758 58 34 2.0 9.0 0.00 0.00 0.00 42 1012.7
20260506194254 58 50 4.0 10.0 0.00 0.00 0.00 43 1012.7
20260506193752 58 334 1.0 7.0 0.00 0.00 0.00 42 1012.7
20260506193248 58 163 0.0 11.0 0.00 0.00 0.00 43 1012.8
20260506192744 58 23 3.0 7.0 0.00 0.00 0.00 43 1012.7
20260506192242 57 329 3.0 9.0 0.00 0.00 0.00 45 1012.8
20260506191738 57 297 3.0 9.0 0.00 0.00 0.00 45 1012.7
20260506191234 57 3 3.0 9.0 0.00 0.00 0.00 46 1012.8
20260506190732 55 242 4.0 6.0 0.00 0.00 0.00 47 1012.8
20260506190228 55 319 2.0 8.0 0.00 0.00 0.00 48 1012.9
20260506185725 56 103 1.0 6.0 0.00 0.00 0.00 48 1012.9
20260506185222 56 322 3.0 4.0 0.00 0.00 0.00 50 1012.8
20260506184719 55 244 4.0 5.0 0.00 0.00 0.00 48 1012.9
20260506184217 55 332 0.0 4.0 0.00 0.00 0.00 47 1012.8
20260506183713 56 113 0.0 9.0 0.00 0.00 0.00 48 1012.7
20260506183209 57 53 0.0 6.0 0.00 0.00 0.00 47 1012.6
20260506182706 57 233 3.0 6.0 0.00 0.00 0.00 47 1012.6
20260506182203 56 21 6.0 6.0 0.00 0.00 0.00 48 1012.5
20260506181701 56 131 2.0 8.0 0.00 0.00 0.00 49 1012.8
20260506181158 56 208 2.0 8.0 0.00 0.00 0.00 48 1012.6
20260506180655 57 270 3.0 6.0 0.00 0.00 0.00 45 1012.6
20260506180151 57 257 2.0 6.0 0.00 0.00 0.00 48 1012.7
20260506175648 56 303 2.0 11.0 0.00 0.00 0.00 49 1012.9
20260506175144 56 312 2.0 5.0 0.00 0.00 0.00 48 1012.7
20260506174637 56 230 4.0 8.0 0.00 0.00 0.00 47 1012.8
20260506174134 56 217 8.0 12.0 0.00 0.00 0.00 49 1012.9
20260506173631 56 196 4.0 5.0 0.00 0.00 0.00 46 1012.9
20260506173128 56 324 2.0 9.0 0.00 0.00 0.00 45 1013.3
20260506172625 57 26 0.0 5.0 0.00 0.00 0.00 47 1013.1
20260506172121 57 0 3.0 5.0 0.00 0.00 0.00 48 1013.2
20260506171620 58 95 2.0 5.0 0.00 0.00 0.00 45 1013.0
20260506171117 58 127 2.0 8.0 0.00 0.00 0.00 44 1012.8
20260506170615 58 241 0.0 7.0 0.00 0.00 0.00 44 1013.1
20260506170111 56 32 1.0 4.0 0.00 0.00 0.00 46 1013.0
20260506165609 56 47 3.0 7.0 0.00 0.00 0.00 44 1013.2
20260506165105 56 194 1.0 5.0 0.00 0.00 0.00 47 1013.1
20260506164603 55 9 4.0 7.0 0.00 0.00 0.00 44 1012.8
20260506164100 55 0 1.0 4.0 0.00 0.00 0.00 47 1012.8
20260506163555 55 6 3.0 5.0 0.00 0.00 0.00 44 1012.6
20260506163051 55 24 2.0 8.0 0.00 0.00 0.00 48 1012.8
20260506162547 56 237 2.0 4.0 0.00 0.00 0.00 48 1012.8
20260506162039 56 70 2.0 7.0 0.00 0.00 0.00 49 1012.8
20260506161537 56 204 3.0 5.0 0.00 0.00 0.00 47 1012.8
20260506161033 56 279 0.0 6.0 0.00 0.00 0.00 46 1012.5
20260506160531 56 69 1.0 4.0 0.00 0.00 0.00 46 1012.8
20260506160028 57 223 3.0 6.0 0.00 0.00 0.00 45 1012.8
20260506155526 56 251 0.0 3.0 0.00 0.00 0.00 49 1012.7
20260506153658 55 81 0.0 2.0 0.00 0.00 0.00 46 1012.8
20260506153155 55 0 2.0 5.0 0.00 0.00 0.00 48 1012.7
20260506152652 55 180 1.0 4.0 0.00 0.00 0.00 52 1012.8
20260506152149 55 270 1.0 3.0 0.00 0.00 0.00 54 1012.8
20260506151648 55 14 0.0 4.0 0.00 0.00 0.00 55 1012.9
20260506151144 55 117 0.0 3.0 0.00 0.00 0.00 54 1012.8